Hannover, Germany

10:20 PM CEST on June 22, 2018 (GMT +0200)
Hannover

Weather History for EDDV - March, 2018

Change the Weather History Date:

Wednesday, March 14, 2018

  Actual Average Record
Temperature  
Mean Temperature 40 °F -  
Max Temperature 42 °F 50 °F 57 °F (2004)
Min Temperature 37 °F 35 °F 17 °F (2006)
Degree Days  
Heating Degree Days 26    
Moisture  
Dew Point 31 °F    
Average Humidity 73    
Maximum Humidity 93    
Minimum Humidity 57    
Precipitation  
Precipitation 0.00 in 0.06 in - ()
Sea Level Pressure  
Sea Level Pressure 29.85 in    
Wind  
Wind Speed 8 mph ()    
Max Wind Speed 14 mph    
Max Gust Speed -    
Visibility 6.2 miles    
Events Rain    
Averages and records for this station are not official NWS values.
T = Trace of Precipitation, MM = Missing Value Source: Averaged Metar Reports

Daily Weather History Graph

Daily Weather History Graph

Search for Another Location

Airport or City:

Astronomy

Mar. 14, 2018 Rise Set
Actual Time 6:38 AM CET 6:23 PM CET
Civil Twilight 6:04 AM CET 6:57 PM CET
Nautical Twilight 5:24 AM CET 7:37 PM CET
Astronomical Twilight 4:43 AM CET 8:18 PM CET
Moon 5:34 AM CET (3/14) 2:57 PM CET (3/14)
Length of Visible Light 12h 53m
Length of Day
11h 45m
Waning Crescent, 9% of the Moon is Illuminated
Mar 14
Waning Crescent
Mar 17
New
Mar 24
First Quarter
Mar 31
Full
Apr 8
Last Quarter

Hourly Weather History & Observations

Time (CET) Temp. Windchill Dew Point Humidity Pressure Visibility Wind Dir Wind Speed Gust Speed Precip Events Conditions
12:20 AM 39.2 °F 32.0 °F 35.6 °F 87% 29.77 in 6.2 mi West 11.5 mph - N/A   Mostly Cloudy
12:50 AM 39.2 °F 32.5 °F 35.6 °F 87% 29.80 in 6.2 mi West 10.4 mph - N/A   Mostly Cloudy
1:20 AM 39.2 °F 32.5 °F 35.6 °F 87% 29.80 in 6.2 mi West 10.4 mph - N/A   Mostly Cloudy
1:50 AM 39.2 °F 33.0 °F 35.6 °F 87% 29.80 in 6.2 mi West 9.2 mph - N/A   Mostly Cloudy
2:20 AM 39.2 °F 31.2 °F 35.6 °F 87% 29.80 in 6.2 mi West 13.8 mph - N/A Rain Light Rain
2:50 AM 39.2 °F 33.6 °F 35.6 °F 87% 29.80 in 6.2 mi West 8.1 mph - N/A   Mostly Cloudy
3:20 AM 39.2 °F 33.0 °F 35.6 °F 87% 29.80 in 6.2 mi West 9.2 mph - N/A   Mostly Cloudy
3:50 AM 39.2 °F 32.5 °F 35.6 °F 87% 29.83 in 6.2 mi West 10.4 mph - N/A   Mostly Cloudy
4:20 AM 39.2 °F 32.0 °F 35.6 °F 87% 29.83 in 6.2 mi West 11.5 mph - N/A   Mostly Cloudy
4:50 AM 37.4 °F 30.3 °F 35.6 °F 93% 29.83 in 6.2 mi West 10.4 mph - N/A   Mostly Cloudy
5:20 AM 37.4 °F 31.4 °F 35.6 °F 93% 29.83 in 6.2 mi West 8.1 mph - N/A   Mostly Cloudy
5:50 AM 37.4 °F 32.1 °F 33.8 °F 87% 29.83 in 6.2 mi WNW 6.9 mph - N/A   Mostly Cloudy
6:20 AM 37.4 °F 32.8 °F 33.8 °F 87% 29.86 in 6.2 mi WNW 5.8 mph - N/A   Mostly Cloudy
6:50 AM 37.4 °F 32.1 °F 33.8 °F 87% 29.86 in 6.2 mi WNW 6.9 mph - N/A   Mostly Cloudy
7:20 AM 37.4 °F 31.4 °F 33.8 °F 87% 29.86 in 6.2 mi WNW 8.1 mph - N/A   Mostly Cloudy
7:50 AM 37.4 °F 31.4 °F 33.8 °F 87% 29.86 in 6.2 mi WNW 8.1 mph - N/A   Mostly Cloudy
8:20 AM 37.4 °F 31.4 °F 33.8 °F 87% 29.89 in 6.2 mi WNW 8.1 mph - N/A   Mostly Cloudy
8:50 AM 39.2 °F 35.0 °F 33.8 °F 81% 29.89 in 6.2 mi West 5.8 mph - N/A   Mostly Cloudy
9:20 AM 39.2 °F 33.6 °F 33.8 °F 81% 29.89 in 6.2 mi West 8.1 mph - N/A   Mostly Cloudy
9:50 AM 39.2 °F 33.6 °F 32.0 °F 75% 29.89 in 6.2 mi West 8.1 mph - N/A   Mostly Cloudy
10:20 AM 41.0 °F 35.2 °F 32.0 °F 70% 29.89 in 6.2 mi WNW 9.2 mph - N/A   Mostly Cloudy
10:50 AM 41.0 °F 35.8 °F 30.2 °F 65% 29.89 in 6.2 mi WNW 8.1 mph - N/A   Mostly Cloudy
11:20 AM 41.0 °F 36.4 °F 28.4 °F 61% 29.89 in 6.2 mi NW 6.9 mph - N/A   Mostly Cloudy
11:50 AM 41.0 °F 35.8 °F 30.2 °F 65% 29.89 in 6.2 mi WNW 8.1 mph - N/A   Mostly Cloudy
12:20 PM 41.0 °F 38.0 °F 28.4 °F 61% 29.89 in 6.2 mi West 4.6 mph - N/A   Scattered Clouds
12:50 PM 41.0 °F 37.1 °F 30.2 °F 65% 29.89 in 6.2 mi West 5.8 mph - N/A   Scattered Clouds
1:20 PM 41.0 °F 36.4 °F 30.2 °F 65% 29.92 in 6.2 mi West 6.9 mph - N/A   Scattered Clouds
1:50 PM 41.0 °F 36.4 °F 30.2 °F 65% 29.89 in 6.2 mi West 6.9 mph - N/A   Scattered Clouds
2:20 PM 41.0 °F 37.1 °F 28.4 °F 61% 29.89 in 6.2 mi West 5.8 mph - N/A   Mostly Cloudy
2:50 PM 41.0 °F 37.1 °F 30.2 °F 65% 29.89 in 6.2 mi WNW 5.8 mph - N/A   Mostly Cloudy
3:20 PM 42.8 °F 41.1 °F 28.4 °F 57% 29.89 in 6.2 mi West 3.5 mph - N/A   Mostly Cloudy
3:50 PM 42.8 °F 41.1 °F 28.4 °F 57% 29.86 in 6.2 mi West 3.5 mph - N/A   Mostly Cloudy
4:20 PM 42.8 °F 41.1 °F 28.4 °F 57% 29.86 in 6.2 mi NW 3.5 mph - N/A   Mostly Cloudy
4:50 PM 42.8 °F 41.1 °F 28.4 °F 57% 29.86 in 6.2 mi ENE 3.5 mph - N/A   Mostly Cloudy
5:20 PM 41.0 °F 38.0 °F 28.4 °F 61% 29.86 in 6.2 mi East 4.6 mph - N/A   Mostly Cloudy
5:50 PM 41.0 °F 37.1 °F 28.4 °F 61% 29.86 in 6.2 mi ENE 5.8 mph - N/A   Mostly Cloudy
6:20 PM 41.0 °F 36.4 °F 28.4 °F 61% 29.86 in 6.2 mi East 6.9 mph - N/A   Mostly Cloudy
6:50 PM 41.0 °F 36.4 °F 28.4 °F 61% 29.86 in 6.2 mi East 6.9 mph - N/A   Mostly Cloudy
7:20 PM 41.0 °F 36.4 °F 28.4 °F 61% 29.86 in 6.2 mi East 6.9 mph - N/A   Mostly Cloudy
7:50 PM 41.0 °F 37.1 °F 28.4 °F 61% 29.86 in 6.2 mi East 5.8 mph - N/A   Mostly Cloudy
8:20 PM 41.0 °F 37.1 °F 30.2 °F 65% 29.86 in 6.2 mi East 5.8 mph - N/A   Mostly Cloudy
8:50 PM 41.0 °F 37.1 °F 30.2 °F 65% 29.86 in 6.2 mi ESE 5.8 mph - N/A   Mostly Cloudy
9:20 PM 41.0 °F 37.1 °F 30.2 °F 65% 29.86 in 6.2 mi ESE 5.8 mph - N/A   Mostly Cloudy
9:50 PM 39.2 °F 33.6 °F 28.4 °F 65% 29.83 in 6.2 mi ESE 8.1 mph - N/A   Mostly Cloudy
10:20 PM 39.2 °F 33.0 °F 28.4 °F 65% 29.83 in 6.2 mi ESE 9.2 mph - N/A   Scattered Clouds
10:50 PM 39.2 °F 33.0 °F 28.4 °F 65% 29.83 in 6.2 mi ESE 9.2 mph - N/A   Partly Cloudy
11:20 PM 37.4 °F 30.8 °F 28.4 °F 70% 29.80 in 6.2 mi ESE 9.2 mph - N/A   Partly Cloudy
11:50 PM 37.4 °F 30.8 °F 28.4 °F 70% 29.80 in - ESE 9.2 mph - N/A   Clear